Location: ?????
(44.4284°N, 135.2222°E)
Time: 17:03:00
(UTC+00:00)

Daily predictions for brighter satellites

Satellite Brightness Start Highest point End
(mag) Time Altitude Azimuth Time Altitude Azimuth Time Altitude Azimuth
Cosmos 1933 4.2 12:02:51 10° SSW 12:06:34 47° WNW 12:10:20 10° N
BREEZE-M DEB (TANK) 4.2 12:03:21 10° W 12:11:15 45° N 12:13:57 10° ENE
DELTA 2 R/B (1) 4.0 12:06:18 10° SW 12:11:22 38° SSE 12:14:43 19° ESE
Okean 1 4.3 12:16:02 25° E 12:16:15 25° E 12:19:19 10° NE
Cosmos 2181 Rocket 4.4 12:14:49 23° SSE 12:18:19 46° E 12:24:20 10° NNE
Cosmos 158 Rocket 4.4 12:13:55 10° SSW 12:19:10 68° WNW 12:24:33 10° NNE
Cosmos 2084 Rocket 3.4 12:17:31 10° SSW 12:21:44 60° SE 12:25:56 10° NE
ARIANE 6 FM1 Upper Stage 3.9 12:18:58 10° WSW 12:22:48 42° NW 12:26:40 10° NNE
Cosmos 1980 Rocket 2.9 12:20:36 10° NNW 12:25:54 41° ENE 12:28:45 24° ESE
Cosmos 1900 4.4 12:20:57 10° NNW 12:26:05 81° NE 12:28:33 32° SE
Meteor 1-26 Rocket 4.3 12:22:16 15° S 12:27:16 88° E 12:33:18 10° N
Meteor 2-2 Rocket 4.5 12:23:45 10° SSW 12:29:38 77° W 12:35:40 10° N
USA 245 4.1 12:29:21 24° SSW 12:31:35 54° W 12:36:24 10° NNW
Cosmos 1743 4.4 12:29:01 10° NW 12:31:53 25° W 12:34:04 14° SW
Cosmos 1356 Rocket 3.3 12:31:05 34° S 12:32:46 75° E 12:36:53 10° NNE
Cosmos 2366 rocket 4.0 12:27:50 10° N 12:34:14 78° E 12:37:46 28° SSE
ATLAS 3B R/B 4.1 12:34:17 20° ESE 12:34:50 20° ESE 12:39:56 10° ENE
SL-16 R/B 4.4 12:32:40 10° N 12:35:54 15° NE 12:39:08 10° ENE
Cosmos 2208 Rocket 4.0 12:33:20 20° S 12:37:04 74° ESE 12:42:25 10° NNE
ISS -2.4 12:34:08 10° NW 12:37:16 35° NNE 12:38:46 23° ENE
BREEZE-M R/B 4.2 12:21:05 10° WNW 12:37:45 70° N 12:41:17 17° E
Terra 3.3 12:36:51 12° SSW 12:40:28 30° W 12:44:37 10° NW
CZ-4C R/B 4.0 12:34:24 10° NW 12:41:14 38° WSW 12:47:12 17° S
SL-24 R/B 4.1 12:37:15 10° NNE 12:41:34 65° ESE 12:43:06 39° S
SL-8 Rocket 4.0 12:36:52 10° N 12:43:03 82° W 12:46:34 27° S
Cosmos 1812 Rocket 3.4 12:44:01 38° S 12:45:38 87° E 12:49:57 10° N
Cosmos 864 Rocket 4.5 12:40:06 10° N 12:46:25 87° W 12:49:51 29° S
Meteor 2-10 4.1 12:40:59 10° N 12:46:42 79° E 12:49:04 36° SSE
Meteor 1-14 Rocket 4.4 12:43:22 10° N 12:48:56 61° ENE 12:51:07 36° SE
Cosmos 1125 Rocket 4.0 12:45:24 10° NNW 12:50:33 52° WSW 12:53:00 29° SSW
Cosmos 1733 4.2 12:51:07 10° NNW 12:53:50 28° W 12:54:26 26° WSW
Cosmos 1697 Rocket 3.1 12:52:47 10° NNW 12:58:18 55° WSW 13:00:41 32° S
Ariane Rocket 3.5 12:56:33 29° SSW 12:58:53 53° W 13:03:51 10° NNW
Cosmos 1315 Rocket 2.8 13:00:43 50° SSW 13:01:37 73° W 13:05:32 10° N
Cosmos 1805 3.2 12:58:59 10° N 13:02:12 55° ENE 13:02:12 55° ENE
Meteor 2-6 Rocket 4.2 12:59:35 30° S 13:02:40 89° W 13:08:27 10° N
Cosmos 2341 Rocket 4.4 12:57:10 10° NNW 13:03:16 57° W 13:06:50 25° SSW
Cosmos 2298 Rocket 4.0 12:58:37 10° NNW 13:03:58 87° ENE 13:05:38 46° SSE
ATLAS CENTAUR R/B 4.0 13:05:44 10° W 13:08:24 18° NW 13:11:08 10° N
Cosmos 2369 4.0 13:04:28 10° NNW 13:10:04 57° ENE 13:11:58 38° ESE
DELTA 2 DEB (DPAF) 3.7 13:06:29 10° NNE 13:10:26 90° W 13:10:54 69° SSW
BREEZE-M DEB (TANK) 4.5 12:54:18 10° W 13:11:15 62° N 13:15:36 11° E
Cosmos 44 3.8 13:08:24 10° NW 13:12:45 43° WSW 13:13:40 38° SSW
Timation 1 Rocket 4.5 13:12:09 43° SSE 13:13:32 52° ESE 13:19:20 10° NE
Cosmos 2082 Rocket 2.1 13:13:18 43° S 13:15:08 70° ESE 13:20:44 10° NNE
NOSS 3-1 (C) 4.2 13:10:58 10° WSW 13:15:32 43° NW 13:21:04 10° NNE
Cosmos 1867 4.0 13:11:32 10° NW 13:16:47 50° WSW 13:18:12 40° SSW
ARIANE 5 R/B 3.6 13:16:52 31° E 13:17:24 32° ENE 13:21:18 10° N
USA 59 Rocket 1.9 13:21:04 12° NE 13:21:04 12° NE 13:21:22 10° NE
SeaSat 1 2.4 13:18:29 53° S 13:19:37 75° WSW 13:24:32 10° NNW
Cosmos 1842 Rocket 4.3 13:20:42 38° E 13:20:42 38° E 13:24:26 10° NNE
Cosmos 2150 Rocket 4.2 13:15:09 10° NNW 13:20:31 67° WSW 13:22:02 46° S
BlueWalker 3 2.3 13:17:35 10° WNW 13:20:32 49° W 13:20:32 49° W
Cosmos 1238 Rocket 3.6 13:21:38 35° WSW 13:22:21 39° W 13:25:34 10° N
Cosmos 1975 4.2 13:19:40 10° NNE 13:22:24 25° ENE 13:22:24 25° ENE
Meteor 1-10 Rocket 4.2 13:22:12 46° S 13:24:02 75° E 13:29:54 10° NNE
CZ-4C R/B 3.4 13:25:02 10° NNE 13:28:06 60° NNE 13:28:06 60° NNE
COSMOS 2406 3.3 13:29:16 51° SSE 13:30:11 58° ESE 13:35:47 10° NNE
CZ-2C R/B 3.9 13:29:26 10° NNE 13:33:29 50° E 13:33:29 50° E
Cosmos 2221 3.7 13:35:37 28° WSW 13:36:57 35° WNW 13:40:48 10° N
Lacrosse 5 rocket 3.2 13:35:21 10° WNW 13:36:37 16° W 13:36:37 16° W
Cosmos 1821 Rocket 4.4 13:33:44 10° NNW 13:39:40 55° W 13:41:55 36° SSW
COBE Rocket 4.1 13:37:39 10° N 13:42:44 71° WNW 13:44:10 47° SW
Cosmos 2333 Rocket 3.8 13:38:22 10° N 13:43:10 27° NE 13:45:58 18° E
Cosmos 1536 3.6 13:39:50 10° NNW 13:43:20 40° W 13:43:20 40° W
Cosmos 1766 4.3 13:40:39 10° N 13:43:04 34° NE 13:43:04 34° NE
NOSS 3-1 (A) 3.5 13:41:24 19° WSW 13:44:45 57° NW 13:50:26 10° NNE
Okean 3 Rocket 3.6 13:48:28 10° N 13:52:49 68° ENE 13:52:49 68° ENE
Meteor 2-9 Rocket 4.4 13:48:02 10° NNW 13:53:38 66° W 13:54:56 50° SSW
Cosmos 405 Rocket 3.5 13:52:40 10° NNW 13:55:06 44° NNW 13:55:06 44° NNW
Meteor 1-19 Rocket 4.5 13:54:12 43° SSW 13:56:12 71° WNW 14:02:15 10° N
Cosmos 1766 Rocket 4.1 13:52:40 10° NNW 13:56:54 48° W 13:57:04 47° WSW
DELTA 2 R/B (1) 4.3 13:51:53 10° WSW 13:55:28 37° SW 13:55:28 37° SW
Meteor 1-27 Rocket 3.6 13:59:03 59° SSW 14:00:10 87° W 14:05:46 10° N
Cosmos 2219 Rocket 4.3 13:56:33 10° N 14:00:25 19° NE 14:04:16 10° E
Landsat 5 3.6 13:56:43 10° NNE 14:00:29 66° NE 14:00:29 66° NE
Meteor 2-4 Rocket 3.9 14:00:43 53° ESE 14:01:23 56° E 14:07:02 10° NNE
MetOp-A 3.9 14:01:56 68° SSW 14:02:31 78° WSW 14:07:43 10° NNW
Meteor 2-15 4.3 13:59:43 10° N 14:05:51 85° E 14:07:08 59° SSE
Cosmos 1980 Rocket 3.2 14:04:51 10° NW 14:09:43 31° WSW 14:10:29 30° WSW
ALOS 2 2.8 14:12:48 63° ENE 14:12:48 63° ENE 14:17:02 10° N
ISS -1.2 14:10:53 10° WNW 14:11:41 16° WNW 14:11:41 16° WNW
Cosmos 1151 Rocket 3.9 14:16:08 40° ENE 14:16:08 40° ENE 14:19:26 10° NNE
Meteor 1-11 Rocket 4.4 14:14:56 10° NNW 14:20:05 42° W 14:21:04 38° WSW
Meteor 1-16 4.5 14:14:36 10° N 14:20:06 90° W 14:20:46 71° S
SL-16 R/B 2.2 14:15:19 10° NNW 14:21:01 75° ENE 14:21:58 60° SE
Meteor 2-15 Rocket 4.3 14:16:24 10° N 14:22:33 84° E 14:23:42 61° SSE
ATLAS 3B R/B 2.8 14:21:28 41° SSW 14:24:30 87° SE 14:32:22 10° NE
USA 229 DEB 3.4 14:23:54 60° SSE 14:24:31 63° ESE 14:31:01 10° NE
USA 229 3.4 14:24:02 59° SSE 14:24:37 62° ESE 14:31:06 10° NE
CENTAUR R/B 3.9 14:20:20 10° NNW 14:28:17 52° NE 14:36:17 14° ESE
Cosmos 2237 4.2 14:24:00 10° NNW 14:29:39 66° WSW 14:30:09 63° SW
Cosmos 1538 Rocket 3.9 14:29:30 69° WSW 14:30:02 77° WNW 14:35:13 10° NNE
Cosmos 2322 Rocket 2.7 14:24:38 10° NNW 14:30:11 53° ENE 14:31:34 43° ESE
Cosmos 1066 Rocket 4.1 14:35:33 65° SE 14:36:05 69° E 14:41:47 10° NNE
Cosmos 1934 Rocket 4.4 14:30:05 10° NNW 14:36:07 52° W 14:37:31 44° SW
Sich 1 3.3 14:32:09 10° NNW 14:35:47 59° NW 14:35:47 59° NW
Cosmos 1535 Rocket 4.5 14:32:25 10° NNW 14:38:45 75° W 14:39:58 58° SSW
PSLV R/B 3.8 14:35:56 10° NNE 14:39:27 61° NNE 14:39:27 61° NNE
Spot 4 4.2 14:41:51 51° W 14:41:51 51° W 14:46:21 10° NNW
Meteor 1-18 Rocket 4.1 14:42:21 68° S 14:43:07 84° E 14:49:00 10° NNE
Meteor 2-8 Rocket 4.3 14:37:14 10° N 14:43:27 87° W 14:44:33 63° S
Cosmos 2278 3.6 14:41:21 10° NNW 14:46:58 70° WSW 14:47:22 67° SW
Cosmos 1500 Rocket 4.0 14:44:50 10° NNW 14:48:39 56° WNW 14:48:39 56° WNW
Cosmos 2360 Rocket 2.4 14:44:28 10° NNW 14:50:04 64° ENE 14:51:12 52° ESE
Cosmos 1605 Rocket 4.0 14:44:39 10° NNW 14:50:57 68° W 14:52:06 56° SW
ARIANE 5 R/B 4.2 14:54:16 24° W 14:54:16 24° W 14:57:21 10° NW
H-2A R/B 4.3 14:53:29 21° ENE 14:53:51 21° ENE 14:56:50 10° NNE
Cosmos 1633 Rocket 4.1 14:52:06 10° N 14:56:06 37° ENE 14:56:06 37° ENE
Cosmos 2082 Rocket 4.3 14:55:29 10° W 14:59:45 22° NW 15:04:02 10° N
Cosmos 1805 Rocket 4.4 15:00:54 10° NNW 15:04:35 41° WNW 15:04:35 41° WNW
Celestis-02/Orion 38 4.4 15:05:07 77° SE 15:05:32 89° ENE 15:10:39 10° NNW
USA 59 Rocket 2.0 15:06:56 13° NW 15:07:31 14° NW 15:09:11 10° N
ASTEX 1 3.2 15:04:15 10° N 15:09:13 84° W 15:09:20 83° WSW
GP-B 3.3 15:06:31 10° N 15:10:30 65° NW 15:10:30 65° NW
Cosmos 1328 Rocket 3.8 15:18:38 64° NE 15:18:38 64° NE 15:22:28 10° NNE
Cosmos 2112 Rocket 3.8 15:19:58 76° SSE 15:20:14 79° ESE 15:25:30 10° NNE
Cosmos 1153 Rocket 4.4 15:14:24 10° NNW 15:20:37 69° W 15:21:40 58° SW
Exosat Rocket 4.0 15:17:45 10° NW 15:22:12 44° W 15:22:12 44° W
Cosmos 1420 Rocket 3.9 15:17:13 10° NNW 15:22:31 73° WSW 15:22:41 72° SW
Cosmos 2333 Rocket 2.3 15:22:14 10° NNW 15:27:47 55° WSW 15:27:58 55° WSW
Cosmos 1758 4.2 15:27:17 10° N 15:30:31 43° NE 15:30:31 43° NE
Cosmos 1727 Rocket 4.2 15:35:18 49° SW 15:36:41 60° W 15:42:51 10° N
Cosmos 2219 Rocket 2.0 15:39:27 10° NNW 15:45:06 85° WSW 15:46:01 64° SSE
Cosmos 2333 4.1 15:40:17 10° NNW 15:45:52 62° WSW 15:46:16 61° SW
Cosmos 2016 Rocket 4.0 15:42:01 10° N 15:48:12 73° E 15:50:08 46° SSE
Cosmos 494 Rocket 3.7 15:48:15 74° SSW 15:48:43 88° WNW 15:53:53 10° NNE
CZ-2C R/B 2.7 15:50:42 48° SE 15:51:59 66° ENE 15:57:07 10° N
Cosmos 2100 Rocket 4.1 15:47:11 10° NNW 15:53:24 61° W 15:54:41 51° SW
Cosmos 1241 Rocket 4.4 15:48:46 10° NW 15:55:15 74° WSW 15:56:56 51° S
Cosmos 1666 Rocket 4.5 15:53:20 10° NNW 15:56:53 37° WNW 15:56:53 37° WNW
SL-14 R/B 3.8 15:58:46 52° NW 15:58:46 52° NW 16:02:00 10° N
Cosmos 2297 Rocket 3.7 15:57:04 22° SE 15:58:34 24° ESE 16:03:01 10° NE
Cosmos 1680 Rocket 4.3 15:58:34 36° W 15:59:44 41° WNW 16:04:40 10° N
Cosmos 1048 Rocket 3.9 15:59:19 62° SSE 15:59:54 69° ESE 16:04:59 10° NNE
IRIDIUM 103 4.4 15:59:02 54° SE 16:00:03 68° E 16:05:15 10° N
Cosmos 1802 Rocket 4.0 15:56:36 10° NNW 16:02:56 75° W 16:04:40 50° SSW
SL-16 R/B 4.0 16:00:56 10° WNW 16:03:47 16° W 16:03:47 16° W
Cosmos 1371 Rocket 4.3 15:59:18 10° NNW 16:04:25 48° WSW 16:04:31 48° WSW
Cosmos 1953 3.9 16:03:30 10° NNE 16:06:38 26° ENE 16:07:24 24° E
Cosmos 1459 Rocket 4.2 16:02:01 10° NNW 16:07:56 52° W 16:09:11 45° SW
Cosmos 1437 Rocket 3.6 16:08:51 39° ENE 16:08:51 39° ENE 16:11:46 10° NNE
Meteor 1-22 Rocket 4.0 16:04:31 10° NNW 16:09:55 77° W 16:10:50 60° SSW
Cosmos 2056 Rocket 4.0 16:05:08 10° NW 16:10:01 41° W 16:10:01 41° W
Cosmos 1455 4.2 16:08:49 10° NNW 16:09:26 14° NW 16:09:26 14° NW
Cosmos 2322 Rocket 3.5 16:09:24 10° NW 16:13:21 24° W 16:13:21 24° W
ATLAS 3B R/B 4.4 16:09:38 10° W 16:16:15 31° NNW 16:23:07 10° NNE
Cosmos 1331 Rocket 4.0 16:11:55 10° NNW 16:17:07 74° ENE 16:18:57 40° SE
Cosmos 1725 Rocket 4.0 16:11:50 10° NNW 16:17:58 65° W 16:19:41 47° SSW
IRIDIUM 106 4.2 16:17:18 58° SSW 16:18:20 84° W 16:23:36 10° N
COSMOS 2428 2.8 16:13:27 10° NNW 16:19:12 73° ENE 16:22:17 28° SE
CENTAUR R/B 3.5 16:11:01 10° NW 16:19:16 54° WSW 16:23:18 34° S
Cosmos 2227 Rocket 4.2 16:21:11 13° SE 16:23:57 18° E 16:27:37 10° ENE
Meteor 1-15 Rocket 4.2 16:18:38 10° NNW 16:24:27 71° W 16:26:00 49° SSW
Cosmos 1470 Rocket 4.4 16:21:26 10° NNW 16:25:01 36° W 16:25:01 36° W
NOSS 0 Rocket 4.3 16:19:52 10° NNW 16:26:05 63° ENE 16:31:55 11° SE
H-2A R/B 3.6 16:28:52 30° WNW 16:28:52 30° WNW 16:31:36 10° NNW
Cosmos 921 Rocket 3.8 16:31:23 34° SE 16:32:05 37° E 16:35:56 10° NE
Meteor 1-12 Rocket 4.2 16:26:35 10° N 16:32:18 84° E 16:34:44 36° SSE
Cosmos 44 Rocket 3.6 16:28:00 10° NNW 16:32:48 63° NE 16:37:05 13° SE
USA 267 4.3 16:27:26 10° ENE 16:33:04 30° SE 16:35:16 25° SSE
Cosmos 2360 Rocket 3.7 16:29:35 10° NW 16:32:55 19° W 16:32:55 19° W
Meteor 2-16 Rocket 4.4 16:32:00 42° S 16:34:13 90° E 16:40:21 10° N
IDEFIX/ARIANE 42P 2.8 16:29:54 10° NNE 16:35:07 65° ESE 16:36:54 40° SSE
Cosmos 1933 Rocket 3.6 16:32:42 10° NNW 16:37:05 60° W 16:37:26 58° WSW
Meteor 1-21 4.1 16:35:42 45° S 16:37:31 90° E 16:43:10 10° N
GEOS 3 Rocket 3.6 16:37:49 48° SSW 16:38:45 56° WSW 16:43:47 10° NW
Resurs 1-4 Rocket 3.4 16:34:47 10° NNE 16:39:30 33° E 16:42:19 20° SE
Cosmos 2233 Rocket 4.0 16:33:28 10° NNW 16:39:38 66° W 16:41:55 39° SSW
Meteor 2-21 Rocket 4.5 16:38:46 41° SSW 16:41:00 71° W 16:47:13 10° N
CZ-2C R/B 3.8 16:41:22 10° N 16:46:57 50° WNW 16:49:01 34° WSW
USA 281 3.8 16:42:45 10° NE 16:49:04 48° ESE 16:52:44 25° S
Cosmos 1869 Rocket 3.5 16:45:11 10° NNW 16:49:38 69° W 16:50:29 54° SSW
Cosmos 1892 4.1 16:52:30 20° ESE 16:53:15 22° E 16:55:41 10° NE
NPP 3.6 16:49:04 10° NNE 16:54:30 82° ESE 16:56:47 36° S
NOSS 3-2 (A) 4.2 16:49:21 10° NW 16:56:47 54° WSW 17:04:22 14° S
Cosmos 614 Rocket 4.0 16:55:36 39° S 16:57:32 78° ESE 17:02:45 10° NNE
Cosmos 2346 Rocket 4.5 16:55:17 35° SSW 16:58:05 75° W 17:04:23 10° N
Tiangong -0.5 17:00:36 26° ESE 17:00:36 26° ESE 17:02:20 10° E
Cosmos 2061 Rocket 4.4 16:55:31 10° NNW 17:01:36 47° W 17:04:04 32° SW
Okean 2 3.1 17:03:12 53° S 17:04:06 88° W 17:08:03 10° N
Cosmos 2237 Rocket 2.4 16:59:32 10° NNW 17:05:11 70° ENE 17:10:49 10° SSE
ADEOS II 3.3 17:00:38 10° NNE 17:05:26 36° E 17:09:12 15° SSE
H-2A R/B 1.8 17:01:58 10° N 17:06:05 79° WNW 17:07:09 48° SSW
NOSS 2-2 (C) 3.7 17:04:44 10° NW 17:08:57 84° SW 17:14:53 10° SSE
CZ-2D R/B 2.6 17:06:26 10° NNE 17:11:52 59° ESE 17:15:18 22° S
Cosmos 1733 Rocket 3.1 17:08:41 10° N 17:13:08 80° E 17:15:38 25° SSE
Cosmos 1862 Rocket 3.6 17:13:06 32° S 17:15:05 76° E 17:19:32 10° NNE
Cosmos 2228 Rocket 3.2 17:12:55 30° S 17:15:06 73° E 17:19:40 10° NNE
Meteor 1-16 Rocket 4.3 17:10:51 10° NNW 17:16:07 54° W 17:18:37 30° SSW
Cosmos 2263 Rocket 4.0 17:12:21 10° SSE 17:16:41 23° E 17:21:03 10° NE
Cosmos 2322 4.4 17:14:03 10° NW 17:19:04 33° WSW 17:20:27 29° SW
ALOS 3.2 17:16:12 10° NNE 17:20:33 42° E 17:23:46 17° SSE
Cosmos 1461 4.3 17:22:12 18° SSE 17:23:50 25° ESE 17:27:00 10° ENE
MOZ.5/SAFIR/RUBIN 5/SL-8 4.1 17:25:05 32° SSW 17:26:42 44° W 17:31:09 10° NNW
Cosmos 2219 Rocket 4.1 17:26:09 10° WNW 17:27:41 12° W 17:27:41 12° W
SAR-Lupe-3 3.9 17:29:17 52° SSW 17:29:50 71° WSW 17:32:48 10° NNW
Cosmos 1703 2.9 17:29:48 42° SSW 17:30:46 68° W 17:34:14 10° N
Cosmos 1452 Rocket 4.4 17:26:49 10° NW 17:31:16 29° W 17:32:31 26° SW
Cosmos 2034 Rocket 4.3 17:26:03 10° N 17:32:12 67° E 17:38:19 10° SSE
CZ-2C R/B 4.2 17:32:08 16° W 17:32:41 16° W 17:35:52 10° NW
MSX 4.3 17:27:49 10° N 17:33:20 48° WNW 17:36:33 24° SW
BREEZE-M R/B 3.5 17:34:05 18° WNW 17:36:02 60° SSW 17:44:13 10° SE
SL-16 R/B 3.6 17:35:18 10° NNW 17:40:39 41° ENE 17:45:58 10° SE
Cosmos 1953 3.6 17:38:59 10° NW 17:41:45 20° W 17:41:57 20° W
Cosmos 2297 Rocket 2.6 17:38:51 23° SW 17:42:12 53° WNW 17:47:46 10° NNE
Cosmos 1464 Rocket 4.0 17:37:31 10° NNW 17:43:51 70° W 17:49:47 12° S
Aureole 3 Rocket 3.1 17:40:09 10° NNW 17:44:20 46° W 17:45:47 29° SW
USA 276 3.0 17:48:42 26° S 17:49:23 30° SE 17:52:01 10° E
SL-16 R/B 3.1 17:43:26 10° SSE 17:49:26 59° ENE 17:55:31 10° N
NOSS 3-2 (C) 4.3 17:42:40 10° NW 17:50:06 53° WSW 17:58:43 10° SSE
Cosmos 1174 4.0 17:51:23 25° SW 17:53:23 58° NW 17:57:47 10° NNE
NOAA 11 4.3 17:48:01 10° NNE 17:53:33 81° ESE 17:58:29 13° S
Cosmos 2219 4.2 17:50:13 10° S 17:55:33 44° ESE 18:00:57 10° NE
USA 238 DEB 4.0 17:51:06 10° NW 17:58:35 87° NE 18:06:39 10° SE
USA 238 4.1 17:51:12 10° NW 17:58:41 87° NE 18:06:45 10° SE
Cosmos 1703 Rocket 3.8 17:55:20 12° S 17:59:25 71° E 18:03:49 10° NNE
H-2A R/B 3.6 17:54:39 10° NNE 17:59:34 34° E 18:04:26 10° SSE
COSMOS 2428 4.2 17:59:09 10° WNW 18:02:44 17° W 18:04:13 16° WSW
RESURS DK-1 4.2 18:02:13 10° SSE 18:05:32 25° ESE 18:08:52 10° NE
Cosmos 2227 Rocket 2.3 18:02:59 17° SW 18:07:21 70° WNW 18:13:00 10° NNE
OAO 2 Rocket 4.4 18:06:49 17° SW 18:09:36 27° S 18:13:58 10° SE
Cosmos 2084 3.4 18:08:04 18° SW 18:11:12 85° SE 18:15:21 10° NE
Cosmos 1980 4.4 18:06:50 10° NW 18:11:51 33° WSW 18:16:49 10° SSW
Milstar 3 4.2 18:06:57 15° SW 18:12:50 26° S 18:18:36 10° SE
Aureole 3 4.1 18:09:52 10° SSE 18:12:55 43° E 18:16:30 10° NNE
IDEFIX/ARIANE 42P 4.3 18:10:28 10° NNW 18:14:04 19° WNW 18:17:36 10° WSW
Meteor 2-17 Rocket 4.4 18:08:52 10° S 18:14:58 87° W 18:21:05 10° N
USA 267 3.3 18:09:56 10° NE 18:16:30 82° NW 18:22:37 12° WSW
NOSS 2-2 (E) 4.3 18:14:32 10° NW 18:18:39 40° WSW 18:24:16 10° S
Resurs 1-4 Rocket 3.0 18:14:31 10° N 18:19:15 35° WNW 18:23:22 13° SW
Cosmos 1269 Rocket 4.0 18:15:50 12° SSW 18:20:42 81° WNW 18:26:01 10° NNE
Tsikada Rocket 4.0 18:16:18 10° SSW 18:22:27 75° W 18:28:38 10° N
Cosmos 1300 Rocket 3.8 18:19:42 10° N 18:24:01 72° E 18:28:21 10° SSE
Okean 1-7 4.0 18:21:35 14° SW 18:24:29 29° WNW 18:28:11 10° NNW
Cosmos 2082 4.3 18:19:41 10° S 18:25:11 56° ESE 18:30:46 10° NNE
Cosmos 1892 4.1 18:24:45 13° WSW 18:26:10 16° WNW 18:28:12 10° NNW
Cosmos 2279 Rocket 4.5 18:21:32 10° N 18:27:44 66° E 18:33:50 10° SSE
Cosmos 1634 Rocket 4.0 18:23:14 10° N 18:29:36 84° W 18:35:55 10° S
H-2A R/B 3.3 18:26:00 10° NNE 18:29:54 82° ESE 18:33:48 10° SSW
CZ-2C R/B 3.4 18:28:21 10° NNE 18:32:46 43° E 18:37:05 10° S
USA 281 4.0 18:27:29 10° N 18:33:24 38° NW 18:39:20 10° WSW
Envisat 3.3 18:28:35 10° N 18:33:30 51° WNW 18:38:22 10° SW
NOSS 3-4 (A) 3.6 18:30:41 11° WSW 18:35:42 53° NW 18:41:30 10° NNE
Meteor 1-28 Rocket 3.0 18:32:22 10° S 18:35:44 60° W 18:39:09 10° NNW
Tiangong -1.8 18:32:48 10° W 18:35:51 46° S 18:38:55 10° ESE
NOSS 3-4 (C) 3.6 18:30:54 11° WSW 18:35:54 53° NW 18:41:42 10° NNE
COSMOS 2455 2.9 18:31:14 10° NW 18:37:09 59° WSW 18:43:03 10° SSE
Cosmos 1908 Rocket 4.2 18:38:02 10° NNW 18:42:00 36° W 18:45:55 10° SSW
ADEOS II 3.1 18:40:20 10° N 18:44:54 32° WNW 18:49:28 10° SW
Cosmos 2237 Rocket 3.6 18:44:55 10° WNW 18:48:35 18° W 18:52:16 10° SW
USA 290 2.4 18:46:56 10° SSW 18:50:05 69° ESE 18:53:15 10° NNE
Cosmos 1140 Rocket 3.6 18:45:03 10° SSW 18:50:12 65° WNW 18:55:22 10° NNE
USA 234 3.3 18:44:49 10° SE 18:51:22 90° SSE 18:57:57 10° NW
CZ-2D R/B 3.7 18:47:17 10° NNW 18:51:23 22° WNW 18:55:30 10° WSW
Helios 1A Rocket 2.6 18:51:56 10° S 18:55:24 60° W 18:58:55 10° NNW
